Main page
METAR-TAF:

METAR-TAF

Airports :

Troll A, Norway

Oil platform

latitude: 60-38-42N, longitude: 3-43-29E, elevation: 20 m

Current weather observation

The report was made 22 minutes ago, at 01:50 UTC
Wind 18 kt from the Northeast
Temperature 13°C
Humidity 88%
Pressure 1006 hPa
Visibility 10 km or more

METAR: ENQA 290150Z AUTO 04018KT 9999NDV NCD 13/11 Q1006 W10/S4

Time: 04:12 (02:12 UTC)


TAF: missing

Weather observations and forecasts of more than 4000 airports (METAR and TAF reports).

The available stations are represented by yellow and red dots on the map.

Hover mouse over dot to see the name of the station.

Then click to see weather observations and forecasts.

To change the map : click on the green buttons with a black cross to zoom in, on the green button with a dash to zoom out, or on the green arrows for adjacent maps.


METAR-TAF: